, TX

(GMT )
Midland

Weather History for KMAF - February, 2013

Change the Weather History Date:

Tuesday, February 19, 2013

  Actual Average Record
Temperature  
Mean Temperature 50 °F 49 °F  
Max Temperature 58 °F 63 °F 90 °F (1986)
Min Temperature 41 °F 35 °F 19 °F (1936)
Degree Days  
Heating Degree Days 15 16  
Month to date heating degree days 295 335  
Since 1 July heating degree days 1781 2107  
Moisture  
Dew Point 29 °F    
Average Humidity 53    
Maximum Humidity 80    
Minimum Humidity 25    
Precipitation  
Precipitation 0.05 in 0.02 in 0.55 in (1997)
Month to date precipitation 0.08 0.49  
Year to date precipitation 1.53 1.05  
Snow  
Snow 0.00 in - - ()
Month to date snowfall 0.0  
Since 1 July snowfall 1.0  
Snow Depth 0.00 in    
Sea Level Pressure  
Sea Level Pressure 30.04 in    
Wind  
Wind Speed 13 mph (ESE)    
Max Wind Speed 26 mph    
Max Gust Speed 32 mph    
Visibility 10 miles    
Events Rain    
T = Trace of Precipitation, MM = Missing Value Source: NWS Daily Summary

Daily Weather History Graph

Daily Weather History Graph

Search for Another Location

Airport or City:

Trip Planner

Search our weather history database for the weather conditions in past years. The results will help you decide how hot, cold, wet, or windy it might be!

Date:

Astronomy

Feb. 19, 2013 Rise Set
Actual Time 7:26 AM CST 6:38 PM CST
Civil Twilight 7:01 AM CST 7:03 PM CST
Nautical Twilight 6:33 AM CST 7:32 PM CST
Astronomical Twilight 6:05 AM CST 8:00 PM CST
Moon 1:22 PM CST (2/19) 2:49 AM CST (2/19)
Length of Visible Light 12h 01m
Length of Day
11h 12m
Waxing Gibbous, 67% of the Moon is Illuminated
Feb 19
Waxing Gibbous
Feb 25
Full
Mar 4
Last Quarter
Mar 11
New
Mar 19
First Quarter

Hourly Weather History & Observations

Time (CST) Temp. Windchill Dew Point Humidity Pressure Visibility Wind Dir Wind Speed Gust Speed Precip Events Conditions
12:53 AM 43.0 °F 38.8 °F 21.9 °F 43% 30.03 in 10.0 mi East 6.9 mph - N/A   Clear
1:53 AM 43.0 °F 38.8 °F 23.0 °F 45% 30.06 in 10.0 mi ESE 6.9 mph - N/A   Clear
2:53 AM 43.0 °F 39.5 °F 23.0 °F 45% 30.06 in 10.0 mi East 5.8 mph - N/A   Clear
3:53 AM 42.1 °F 38.4 °F 24.1 °F 49% 30.06 in 10.0 mi ESE 5.8 mph - N/A   Clear
4:53 AM 43.0 °F 38.8 °F 24.1 °F 47% 30.08 in 10.0 mi East 6.9 mph - N/A   Clear
5:53 AM 42.1 °F 37.7 °F 24.1 °F 49% 30.09 in 10.0 mi East 6.9 mph - N/A   Clear
6:53 AM 41.0 °F 35.2 °F 24.1 °F 51% 30.11 in 10.0 mi East 9.2 mph - N/A   Clear
7:53 AM 42.1 °F 35.7 °F 24.1 °F 49% 30.12 in 10.0 mi East 11.5 mph - N/A   Clear
8:53 AM 43.0 °F 36.0 °F 25.0 °F 49% 30.14 in 10.0 mi ESE 13.8 mph - N/A   Clear
9:53 AM 46.0 °F 38.8 °F 25.0 °F 44% 30.14 in 10.0 mi SE 18.4 mph - N/A   Clear
10:53 AM 52.0 °F - 24.1 °F 34% 30.12 in 10.0 mi SE 23.0 mph - N/A   Clear
12:53 PM 55.9 °F - 21.9 °F 27% 30.06 in 10.0 mi SSE 23.0 mph 31.1 mph N/A   Clear
1:53 PM 55.9 °F - 21.9 °F 27% 30.02 in 10.0 mi SSE 21.9 mph 26.5 mph N/A   Clear
2:53 PM 57.0 °F - 23.0 °F 27% 29.98 in 10.0 mi SSE 21.9 mph 28.8 mph N/A   Clear
3:53 PM 57.0 °F - 25.0 °F 29% 29.96 in 10.0 mi SSE 21.9 mph - N/A   Overcast
4:53 PM 54.0 °F - 33.1 °F 45% 29.96 in 10.0 mi SE 16.1 mph - 0.00 in Rain Light Rain
6:53 PM 48.9 °F - 41.0 °F 74% 29.99 in 10.0 mi ESE 8.1 mph - 0.01 in Rain Light Rain
7:53 PM 48.0 °F - 42.1 °F 80% 30.02 in 10.0 mi ESE 4.6 mph - 0.00 in Rain Light Rain
8:53 PM 48.0 °F - 42.1 °F 80% 30.03 in 10.0 mi ENE 5.8 mph - 0.03 in Rain Light Rain
9:53 PM 48.0 °F - 39.9 °F 74% 29.99 in 10.0 mi East 10.4 mph - 0.00 in   Overcast
10:53 PM 48.0 °F - 41.0 °F 77% 29.98 in 10.0 mi East 5.8 mph - 0.00 in Rain Light Rain
11:53 PM 46.9 °F - 39.9 °F 77% 29.94 in 10.0 mi East 10.4 mph - 0.00 in   Overcast